Location: Fort Worth, Tx
(32.7431°N, 97.3695°W)
Time: 18:45:27
(UTC-04:00)

Transit 4A - Pass Details

Date: 28 February 2024
Orbit: 871 x 972 km, 66.8° (Epoch: 21 April)

Event Time Altitude Azimuth Distance (km) Brightness Sun altitude
Rises 02:36:52 0° 233° (SW) 3,615 - -62.3°
Reaches altitude 10° 02:39:45 10° 243° (WSW) 2,658 - -62.0°
Maximum altitude 02:45:06 30° 303° (WNW) 1,597 - -61.4°
Drops below altitude 10° 02:50:23 10° 4° (N) 2,607 - -60.7°
Sets 02:53:12 0° 15° (NNE) 3,535 - -60.4°
